TimeEST,TemperatureF,Dew PointF,Humidity,Sea Level PressureIn,VisibilityMPH,Wind Direction,Wind SpeedMPH,Gust SpeedMPH,PrecipitationIn,Events,Conditions,WindDirDegrees,DateUTC
12:16 AM,37.4,27.1,66,30.14,10.0,SSW,6.9,-,N/A,,Overcast,210,2012-12-13 05:16:00
12:36 AM,38.1,26.6,63,30.14,10.0,SSW,8.1,19.6,N/A,,Overcast,210,2012-12-13 05:36:00
12:55 AM,38.1,26.6,63,30.13,10.0,SSW,12.7,18.4,N/A,,Overcast,210,2012-12-13 05:55:00
1:16 AM,37.9,26.6,64,30.13,10.0,SSW,12.7,21.9,N/A,,Overcast,200,2012-12-13 06:16:00
1:35 AM,38.1,26.6,63,30.12,10.0,SSW,10.4,20.7,N/A,,Overcast,200,2012-12-13 06:35:00
1:55 AM,37.9,26.8,64,30.13,10.0,SSW,9.2,18.4,N/A,,Overcast,210,2012-12-13 06:55:00
2:16 AM,38.3,26.6,63,30.12,10.0,SW,12.7,19.6,N/A,,Overcast,220,2012-12-13 07:16:00
2:35 AM,38.1,26.8,64,30.12,10.0,SSW,15.0,23.0,N/A,,Overcast,210,2012-12-13 07:35:00
2:55 AM,38.3,27.3,65,30.12,10.0,SSW,13.8,21.9,N/A,,Overcast,210,2012-12-13 07:55:00
3:16 AM,38.3,27.1,64,30.12,10.0,SSW,15.0,24.2,N/A,,Overcast,210,2012-12-13 08:16:00
3:35 AM,38.3,27.5,65,30.12,10.0,SSW,11.5,23.0,N/A,,Mostly Cloudy,210,2012-12-13 08:35:00
3:56 AM,38.3,27.5,65,30.12,10.0,SSW,10.4,21.9,N/A,,Clear,210,2012-12-13 08:56:00
4:16 AM,38.3,27.5,65,30.10,10.0,SSW,13.8,19.6,N/A,,Mostly Cloudy,210,2012-12-13 09:16:00
4:35 AM,37.8,28.2,68,30.10,10.0,SSW,10.4,17.3,N/A,,Mostly Cloudy,200,2012-12-13 09:35:00
4:56 AM,37.9,28.4,69,30.10,10.0,SSW,10.4,16.1,N/A,,Overcast,200,2012-12-13 09:56:00
5:16 AM,37.8,29.1,71,30.09,10.0,SSW,9.2,17.3,N/A,,Overcast,200,2012-12-13 10:16:00
5:35 AM,37.6,29.3,72,30.08,10.0,SSW,12.7,17.3,N/A,,Mostly Cloudy,200,2012-12-13 10:35:00
5:56 AM,37.4,29.3,73,30.08,10.0,SSW,10.4,16.1,N/A,,Clear,200,2012-12-13 10:56:00
6:16 AM,37.4,29.3,73,30.08,10.0,SSW,11.5,19.6,N/A,,Clear,200,2012-12-13 11:16:00
6:35 AM,37.4,29.5,73,30.08,10.0,SSW,11.5,21.9,N/A,,Clear,200,2012-12-13 11:35:00
6:56 AM,37.4,29.7,74,30.08,10.0,SSW,10.4,17.3,N/A,,Clear,200,2012-12-13 11:56:00
7:16 AM,37.0,29.7,75,30.07,10.0,SSW,10.4,17.3,N/A,,Clear,200,2012-12-13 12:16:00
7:35 AM,37.4,29.5,73,30.08,10.0,SSW,9.2,18.4,N/A,,Clear,200,2012-12-13 12:35:00
7:56 AM,37.2,29.7,74,30.08,10.0,SSW,10.4,16.1,N/A,,Clear,210,2012-12-13 12:56:00
8:16 AM,37.4,29.3,73,30.08,10.0,South,10.4,-,N/A,,Clear,190,2012-12-13 13:16:00
8:35 AM,37.8,29.3,72,30.07,10.0,SSW,10.4,18.4,N/A,,Clear,200,2012-12-13 13:35:00
8:56 AM,37.9,29.3,71,30.07,10.0,South,9.2,-,N/A,,Clear,190,2012-12-13 13:56:00
9:16 AM,38.3,29.5,71,30.07,10.0,SSW,8.1,16.1,N/A,,Clear,200,2012-12-13 14:16:00
9:35 AM,38.5,29.8,71,30.06,10.0,SSW,10.4,16.1,N/A,,Clear,200,2012-12-13 14:35:00
9:56 AM,39.2,29.3,68,30.06,10.0,SSW,9.2,-,N/A,,Clear,200,2012-12-13 14:56:00
10:16 AM,39.6,29.1,66,30.06,10.0,SSW,6.9,-,N/A,,Clear,210,2012-12-13 15:16:00
10:35 AM,40.3,28.9,64,30.07,10.0,SSW,6.9,-,N/A,,Clear,210,2012-12-13 15:35:00
10:56 AM,41.5,28.6,60,30.06,10.0,SW,16.1,25.3,N/A,,Clear,220,2012-12-13 15:56:00
11:16 AM,41.9,28.4,59,30.05,10.0,SW,13.8,25.3,N/A,,Clear,220,2012-12-13 16:16:00
11:35 AM,41.9,28.9,60,30.05,10.0,SW,13.8,25.3,N/A,,Clear,230,2012-12-13 16:35:00
11:56 AM,41.9,29.1,61,30.04,10.0,SW,17.3,25.3,N/A,,Clear,220,2012-12-13 16:56:00
12:16 PM,41.9,29.1,61,30.03,10.0,SW,15.0,26.5,N/A,,Clear,230,2012-12-13 17:16:00
12:35 PM,41.9,28.9,60,30.03,10.0,SW,15.0,26.5,N/A,,Clear,230,2012-12-13 17:35:00
12:56 PM,41.0,29.1,63,30.03,10.0,SW,12.7,23.0,N/A,,Clear,230,2012-12-13 17:56:00
1:15 PM,41.0,29.1,63,30.03,10.0,SW,17.3,26.5,N/A,,Mostly Cloudy,220,2012-12-13 18:15:00
1:35 PM,41.0,28.6,61,30.02,10.0,SW,15.0,24.2,N/A,,Overcast,220,2012-12-13 18:35:00
1:56 PM,41.4,28.8,61,30.01,10.0,SW,11.5,23.0,N/A,,Scattered Clouds,220,2012-12-13 18:56:00
2:15 PM,41.5,28.9,61,30.00,10.0,SSW,13.8,21.9,N/A,,Clear,210,2012-12-13 19:15:00
2:35 PM,41.5,29.3,62,29.99,10.0,SW,9.2,20.7,N/A,,Clear,220,2012-12-13 19:35:00
2:56 PM,41.7,29.3,61,29.99,10.0,SW,10.4,18.4,N/A,,Clear,230,2012-12-13 19:56:00
3:15 PM,40.8,31.6,70,29.99,10.0,SW,10.4,18.4,N/A,,Scattered Clouds,230,2012-12-13 20:15:00
3:36 PM,40.5,31.5,70,29.98,10.0,SW,11.5,21.9,N/A,,Scattered Clouds,230,2012-12-13 20:36:00
3:56 PM,40.3,31.8,72,29.98,10.0,SW,11.5,19.6,N/A,,Clear,230,2012-12-13 20:56:00
4:15 PM,40.3,31.1,70,29.98,10.0,SW,11.5,16.1,N/A,,Clear,230,2012-12-13 21:15:00
4:36 PM,39.9,32.0,73,29.97,10.0,WSW,12.7,19.6,N/A,,Clear,240,2012-12-13 21:36:00
4:56 PM,39.6,32.0,74,29.98,10.0,SW,13.8,21.9,N/A,,Clear,230,2012-12-13 21:56:00
6:15 PM,38.8,32.0,76,30.00,10.0,WSW,9.2,-,N/A,,Overcast,240,2012-12-13 23:15:00
8:15 PM,37.4,30.0,75,30.01,10.0,West,10.4,-,N/A,,Scattered Clouds,280,2012-12-14 01:15:00
8:56 PM,36.5,30.0,77,30.01,10.0,West,9.2,-,N/A,,Clear,270,2012-12-14 01:56:00
9:15 PM,35.8,30.0,80,30.01,10.0,West,8.1,-,N/A,,Clear,280,2012-12-14 02:15:00
9:36 PM,35.6,29.7,79,30.02,10.0,West,11.5,-,N/A,,Clear,280,2012-12-14 02:36:00
9:56 PM,35.2,29.3,79,30.02,10.0,West,9.2,-,N/A,,Clear,280,2012-12-14 02:56:00
10:15 PM,34.9,28.6,78,30.02,10.0,West,8.1,-,N/A,,Clear,280,2012-12-14 03:15:00
10:55 PM,34.2,26.6,74,30.02,10.0,West,8.1,-,N/A,,Scattered Clouds,280,2012-12-14 03:55:00
11:15 PM,34.2,27.1,75,30.02,10.0,West,9.2,-,N/A,,Mostly Cloudy,280,2012-12-14 04:15:00
11:36 PM,34.0,27.3,77,30.03,10.0,West,5.8,-,N/A,,Scattered Clouds,280,2012-12-14 04:36:00
11:56 PM,34.2,27.1,75,30.04,10.0,West,9.2,-,N/A,,Mostly Cloudy,280,2012-12-14 04:56:00